Location: *
(47.6569°N, 7.4256°E)
Time: 08:33:27
(UTC+00:00)

FALCON 9 DEB - Pass Details

Date: 14 December 2019
Orbit: 431 x 442 km, 53.0° (Epoch: 17 January)

Event Time Altitude Azimuth Distance (km) Brightness Sun altitude
Rises 17:13:22 0° 258° (WSW) 2,427 8.8 -15.1°
Reaches altitude 10° 17:15:31 10° 263° (W) 1,557 7.2 -15.4°
Maximum altitude 17:18:57 51° 341° (NNW) 565 3.6 -16.0°
Enters shadow 17:20:10 33° 38° (NE) 769 3.9 -16.2°
